Showing default

PICO-02C023, 60564

Orbit data source: Space-Track

PICO-02C023, 60564 is a payload satellite owned by Apogeo Space (IT) in SSO that was launched on Fri, 16 Aug 2024 UTC via an FALCON 9 launch vehicle from the Air Force Western Test Range (AFWTR). Payload-class satellites include a variety of spacecraft equipped with specific instruments for various scientific and technological missions. These include communications satellites like Starlink; space stations such as the ISS; scientific satellites like the Hubble; Earth observation satellites from companies like Planet Labs, Umbra, and HawkEye 360; GPS; miniature CubeSats for education and research; and military/defense satellites.

Loading next visibility...
Identifier
60564, 2024-149DA
Orbit
SSO
Country
Flag of ITIT
Related business
Manufacturer
Apogeo Space
Mission
Operational Commercial Communications
Bus & Motor
CUBESAT 0.3U, Unknown motor
Mass
0.5 kg wet, 0.5 kg dry
Launch date (UTC)
2024-08-16 (1 year ago)
Launch vehicle
FALCON 9
Launch site
Air Force Western Test Range (AFWTR)
Object type
Payload
Rocket body
Debris
Shape & HBR
Box, 0.1 m
Radar Cross Section
0.008 m², Medium (>0.1 m² and < 1m²)

Expand to show TLE details & history
Last TLE update: 10 hours ago

TLE from 10 hours ago
0 PICO-02C023
1 60564U 24149DA  26036.21168079  .01252166  00000-0  53341-2 0  9993
2 60564  97.6709 132.7866 0008307 294.9105  65.1300 15.82565498 81504
Epoch: 2026-02-05T05:04Z
TLE epoch observation values (Epoch: 2026-02-05T05:04:49.220Z)
Latitude
0.00006°
Longitude
-78.78565°
Altitude
324.017 km
Speed
7.715 km/s
True Right ascension
08h 51m 08s
True Declination
0° 00' 00"
Sunlit
Object was in full shadow at epoch
Visualization orbit readout
Latitude
Unknown
Longitude
Unknown
Altitude
Unknown
Speed
Unknown
Apparent Right ascension
Unknown
Apparent Declination
Unknown
Sunlit
N/A
Visualization observer readout
Local Sidereal Time
16:57:04
Azimuth
Unknown
Elevation
Unknown
Doppler factor
Unknown
Orbital elements
Apogee altitude
325.648 km
Perigee altitude
314.519 km
Semi-major axis
6,698.22 km
Eccentricity
0.00083
Inclination
97.6709°
RAAN
132.7866°
Arg. of periapsis
294.9105°
True anomaly
65.2164°
Mean anomaly
65.13°
Eccentric anomaly
65.1732°
Mean motion
3.95917 °/min
Orbital period
90.93 mins
BSTAR
0.0053341
Loading maneuver chart data...
Computing Atmospheric mass density...
Loading historical data...
Loading historical data...
Loading historical data...
Loading historical data...
Loading historical data...
Loading historical data...
Loading historical data...

Documentation

Showing up to 5 results
|